JA9GIL-13 Weather Reports


time (UTC)temp
C
wind
direction
speed
KPH
gust
KPH
rain 1hr
cm
rain 24hr
cm
rain mn
cm
humidity
%
barometer
mb
20260509161933 8 312 0.0 3.2 0.00 0.30 0.00 80 1018.0
20260509160134 8 296 0.0 3.2 0.00 0.30 0.00 81 1017.9
20260509155233 8 294 0.0 4.8 0.00 0.30 0.00 81 1017.9
20260509153434 8 291 0.0 4.8 0.00 0.30 0.00 82 1018.4
20260509151634 8 297 0.0 1.6 0.00 0.30 0.00 82 1018.3
20260509150734 8 307 0.0 1.6 0.00 0.30 0.00 82 1018.4
20260509145833 9 315 0.0 1.6 0.00 0.30 0.30 82 1018.5
20260509144934 9 315 0.0 1.6 0.00 0.30 0.30 82 1018.5
20260509142234 9 315 0.0 1.6 0.00 0.30 0.30 82 1018.5
20260509140434 10 306 0.0 1.6 0.00 0.30 0.30 82 1018.4
20260509134634 10 270 0.0 1.6 0.00 0.30 0.30 82 1018.5
20260509133734 10 270 0.0 1.6 0.00 0.30 0.30 82 1018.4
20260509132833 10 290 0.0 3.2 0.00 0.30 0.30 82 1018.6
20260509131034 10 45 0.0 1.6 0.00 0.30 0.30 80 1018.5
20260509130133 10 45 0.0 1.6 0.00 0.30 0.30 80 1018.3
20260509125234 11 46 0.0 3.2 0.00 0.30 0.30 78 1018.4
20260509124334 11 45 1.6 3.2 0.00 0.30 0.30 77 1018.2
20260509123435 11 45 0.0 1.6 0.00 0.30 0.30 78 1018.3
20260509122534 11 58 0.0 3.2 0.00 0.30 0.30 78 1018.3
20260509121634 11 6 0.0 3.2 0.00 0.30 0.30 77 1018.1
20260509120734 12 45 0.0 1.6 0.00 0.30 0.30 75 1018.0
20260509115834 12 45 0.0 1.6 0.00 0.30 0.30 74 1018.0
20260509114934 12 23 0.0 3.2 0.00 0.30 0.30 72 1017.9
20260509114034 12 338 1.6 4.8 0.00 0.30 0.30 72 1018.1
20260509113133 12 44 0.0 4.8 0.00 0.30 0.30 71 1017.6
20260509112234 12 33 1.6 3.2 0.00 0.30 0.30 71 1017.7
20260509111334 13 46 0.0 3.2 0.00 0.30 0.30 70 1017.4
20260509110433 13 32 0.0 4.8 0.00 0.30 0.30 70 1017.4
20260509105534 13 41 1.6 3.2 0.00 0.30 0.30 70 1017.3
20260509104634 13 51 1.6 6.4 0.00 0.30 0.30 68 1017.0
20260509103734 13 37 1.6 4.8 0.00 0.30 0.30 67 1017.0
20260509101934 14 54 3.2 9.7 0.00 0.30 0.30 65 1016.9
20260509101034 14 53 0.0 6.4 0.00 0.30 0.30 62 1016.9
20260509100133 15 48 4.8 12.9 0.00 0.30 0.30 61 1016.5
20260509095234 15 72 1.6 6.4 0.00 0.30 0.30 60 1016.4
20260509093434 16 46 3.2 9.7 0.00 0.33 0.30 53 1016.3
20260509091634 17 48 3.2 11.3 0.00 0.33 0.30 51 1016.3
20260509090734 17 33 6.4 12.9 0.00 0.33 0.30 51 1016.3
20260509084933 17 46 1.6 6.4 0.00 0.33 0.30 50 1016.0
20260509084034 17 47 3.2 6.4 0.00 0.33 0.30 45 1016.3
20260509083134 17 47 3.2 6.4 0.00 0.33 0.30 46 1016.0
20260509082233 17 34 4.8 6.4 0.00 0.33 0.30 44 1015.9
20260509081333 17 31 3.2 6.4 0.00 0.33 0.30 45 1016.0
20260509080434 18 61 3.2 6.4 0.00 0.33 0.30 47 1016.2
20260509074634 18 50 3.2 9.7 0.00 0.33 0.30 43 1015.6
20260509072834 19 47 4.8 9.7 0.00 0.33 0.30 43 1015.3
20260509071933 19 62 4.8 12.9 0.00 0.33 0.30 44 1015.2
20260509071033 19 48 6.4 9.7 0.00 0.33 0.30 44 1015.3
20260509065234 20 40 4.8 11.3 0.00 0.33 0.30 42 1015.4
20260509063434 21 56 3.2 14.5 0.00 0.33 0.30 40 1015.2
20260509062534 21 38 6.4 9.7 0.00 0.33 0.30 40 1015.3
20260509061634 21 44 4.8 12.9 0.00 0.33 0.30 40 1015.1
20260509060733 21 13 4.8 12.9 0.00 0.33 0.30 41 1014.9
20260509055833 21 22 4.8 11.3 0.00 0.33 0.30 38 1015.3
20260509054934 22 40 3.2 9.7 0.00 0.33 0.30 38 1015.3
20260509054034 22 52 3.2 12.9 0.00 0.33 0.30 32 1015.4
20260509053135 23 23 3.2 12.9 0.00 0.33 0.30 32 1015.2
20260509052233 22 41 4.8 6.4 0.00 0.33 0.30 33 1015.1
20260509051333 22 49 3.2 14.5 0.00 0.33 0.30 38 1015.2
20260509050433 22 54 3.2 14.5 0.00 0.33 0.30 38 1015.3
20260509045533 22 64 6.4 14.5 0.00 0.33 0.30 36 1015.6
20260509044633 22 67 4.8 12.9 0.00 0.33 0.30 37 1015.6
20260509043733 22 317 3.2 9.7 0.00 0.33 0.30 35 1015.6
20260509042834 21 56 3.2 8.0 0.00 0.33 0.30 35 1015.7
20260509041933 22 27 3.2 6.4 0.00 0.33 0.30 35 1015.8
20260509041033 21 54 4.8 12.9 0.00 0.33 0.30 36 1016.1
20260509040134 21 65 4.8 16.1 0.00 0.33 0.30 40 1015.9
20260509035233 20 52 3.2 12.9 0.00 0.33 0.30 41 1015.8
20260509034333 20 31 8.0 12.9 0.00 0.33 0.30 40 1015.7
20260509033434 20 34 4.8 12.9 0.00 0.33 0.30 43 1015.9
20260509032534 20 15 4.8 12.9 0.00 0.33 0.30 43 1015.8
20260509031633 20 41 6.4 11.3 0.00 0.33 0.30 42 1015.7
20260509025833 20 16 3.2 6.4 0.00 0.33 0.30 42 1016.1
20260509024934 20 16 3.2 6.4 0.00 0.33 0.30 44 1016.2
20260509024034 20 31 3.2 9.7 0.00 0.33 0.30 43 1016.0
20260509023134 20 63 4.8 8.0 0.00 0.33 0.30 45 1016.0
20260509022233 18 355 3.2 8.0 0.00 0.33 0.30 48 1016.3
20260509015534 18 29 6.4 14.5 0.00 0.33 0.30 49 1016.1
20260509014634 18 44 6.4 8.0 0.00 0.33 0.30 52 1016.2
20260509012834 16 13 3.2 11.3 0.00 0.33 0.30 63 1016.3
20260509011934 15 58 6.4 14.5 0.00 0.33 0.30 64 1016.3
20260509005234 16 336 4.8 6.4 0.00 0.33 0.30 69 1016.0
20260509004334 15 299 0.0 4.8 0.00 0.33 0.30 71 1015.8
20260509001634 13 352 1.6 8.0 0.00 0.33 0.30 71 1016.2
20260509000734 13 15 3.2 6.4 0.00 0.33 0.30 72 1015.9
20260508234034 13 315 3.2 6.4 0.00 0.33 0.30 72 1015.7
20260508232234 14 280 3.2 9.7 0.00 0.33 0.30 75 1016.1
20260508231333 15 279 3.2 11.3 0.00 0.33 0.30 83 1016.2
20260508230435 14 285 3.2 6.4 0.00 0.33 0.30 90 1016.1
20260508225533 13 257 1.6 4.8 0.00 0.33 0.30 91 1016.1
20260508223733 11 297 0.0 4.8 0.00 0.33 0.30 93 1016.3
20260508222835 11 302 0.0 3.2 0.00 0.33 0.30 93 1015.9
20260508221034 10 356 0.0 3.2 0.00 0.33 0.30 92 1016.0
20260508215234 10 1 0.0 1.6 0.00 0.33 0.30 91 1016.0
20260508213434 10 330 1.6 3.2 0.00 0.33 0.30 91 1016.0
20260508212533 10 324 0.0 3.2 0.00 0.33 0.30 91 1015.8
20260508211633 10 356 1.6 4.8 0.00 0.33 0.30 91 1015.6
20260508205834 10 328 3.2 6.4 0.15 0.33 0.30 91 1015.3
20260508204934 10 44 3.2 9.7 0.15 0.33 0.30 91 1015.2
20260508204034 10 328 6.4 17.7 0.15 0.33 0.30 91 1014.7
20260508203134 10 50 3.2 11.3 0.15 0.33 0.30 91 1014.4
20260508202233 10 38 6.4 11.3 0.15 0.33 0.30 91 1014.1
20260508201334 10 351 3.2 8.0 0.10 0.28 0.28 90 1013.9
20260508195534 10 12 3.2 9.7 0.03 0.18 0.15 90 1013.2
20260508193734 10 11 4.8 12.9 0.10 0.18 0.15 87 1012.7
20260508192833 10 311 8.0 12.9 0.15 0.18 0.15 85 1012.5
20260508190134 10 335 3.2 8.0 0.13 0.15 0.13 81 1011.9
20260508185234 10 32 4.8 11.3 0.13 0.15 0.13 80 1011.7
20260508184333 11 344 4.8 12.9 0.05 0.10 0.05 77 1011.7
20260508183433 11 317 6.4 8.0 0.05 0.10 0.05 75 1011.3
20260508182534 11 356 3.2 12.9 0.00 0.03 0.00 74 1011.0
20260508181633 11 339 6.4 12.9 0.00 0.03 0.00 74 1011.0
20260508180733 11 6 3.2 11.3 0.00 0.03 0.00 74 1010.8
20260508174934 12 23 4.8 14.5 0.00 0.03 0.00 72 1010.8
20260508174033 12 19 3.2 16.1 0.00 0.03 0.00 64 1010.6
20260508173134 13 60 6.4 12.9 0.00 0.03 0.00 63 1010.1
20260508172233 13 30 3.2 9.7 0.00 0.03 0.00 62 1010.0
20260508171334 13 17 4.8 17.7 0.00 0.03 0.00 60 1010.3
20260508170434 13 8 6.4 16.1 0.00 0.03 0.00 58 1009.9
20260508165534 13 14 6.4 9.7 0.00 0.03 0.00 55 1009.8
20260508164633 13 24 3.2 8.0 0.00 0.03 0.00 55 1009.6
20260508163734 13 16 6.4 14.5 0.00 0.03 0.00 54 1009.6
20260508162833 13 346 6.4 11.3 0.00 0.03 0.00 53 1009.4